EW4251 Weather Reports


time (UTC)temp
C
wind
direction
speed
KPH
gust
KPH
rain 1hr
cm
rain 24hr
cm
rain mn
cm
humidity
%
barometer
mb
20260505201037 17 341 0.0 3.2 0.00 0.69 0.30 43 1015.8
20260505200517 17 328 0.0 6.4 0.00 0.69 0.30 45 1015.9
20260505200059 17 257 1.6 6.4 0.00 0.69 0.30 48 1015.9
20260505195539 16 333 0.0 3.2 0.00 0.69 0.30 42 1015.8
20260505195016 17 17 0.0 3.2 0.00 0.69 0.30 40 1015.8
20260505194602 16 27 0.0 1.6 0.00 0.69 0.30 42 1015.9
20260505194043 16 333 0.0 4.8 0.00 0.69 0.30 42 1016.0
20260505193520 16 333 0.0 4.8 0.00 0.69 0.30 41 1016.0
20260505193130 16 334 0.0 3.2 0.00 0.69 0.30 40 1015.9
20260505192540 16 282 0.0 11.3 0.00 0.69 0.30 47 1016.0
20260505192021 16 276 0.0 11.3 0.00 0.69 0.30 45 1016.0
20260505191507 16 351 0.0 6.4 0.00 0.69 0.30 43 1016.0
20260505191051 16 320 0.0 6.4 0.00 0.69 0.30 41 1016.0
20260505190529 16 269 0.0 4.8 0.00 0.69 0.30 41 1016.0
20260505190009 16 353 0.0 3.2 0.00 0.69 0.30 38 1015.9
20260505185552 16 321 0.0 6.4 0.00 0.69 0.30 33 1015.9
20260505185031 16 313 0.0 6.4 0.00 0.69 0.30 34 1015.9
20260505184526 16 226 0.0 4.8 0.00 0.69 0.30 36 1015.8
20260505184102 16 349 1.6 4.8 0.00 0.69 0.30 32 1015.8
20260505183541 15 221 1.6 4.8 0.00 0.69 0.30 31 1015.7
20260505183023 15 18 0.0 4.8 0.00 0.69 0.30 21 1015.8
20260505182603 15 300 0.0 4.8 0.00 0.69 0.30 18 1015.8
20260505182042 15 321 1.6 6.4 0.00 0.69 0.30 17 1015.9
20260505181521 14 312 1.6 4.8 0.00 0.69 0.30 7 1015.8
20260505181107 14 316 1.6 4.8 0.00 0.69 0.30 7 1015.8
20260505180542 13 354 0.0 3.2 0.00 0.69 0.30 1 1015.8
20260505180037 13 333 1.6 4.8 0.00 0.69 0.30 3 1015.8
20260505175508 13 339 0.0 4.8 0.00 0.69 0.30 3 1015.8
20260505175051 13 326 1.6 4.8 0.00 0.69 0.30 2 1015.8
20260505174530 13 293 0.0 3.2 0.00 0.69 0.30 1 1015.7
20260505174009 13 213 0.0 3.2 0.00 0.69 0.30 1 1015.6
20260505173550 13 275 0.0 4.8 0.00 0.69 0.30 1 1015.5
20260505173030 13 277 0.0 4.8 0.00 0.69 0.30 2 1015.5
20260505172511 13 238 0.0 4.8 0.00 0.69 0.30 1 1015.5
20260505172052 13 258 0.0 4.8 0.00 0.69 0.30 1 1015.5
20260505171532 13 214 0.0 3.2 0.00 0.69 0.30 1 1015.4
20260505171013 13 44 0.0 3.2 0.00 0.69 0.30 1 1015.5
20260505170554 13 8 0.0 1.6 0.00 0.69 0.30 1 1015.5
20260505170037 13 284 0.0 4.8 0.00 0.69 0.30 1 1015.6
20260505165510 13 246 0.0 3.2 0.00 0.69 0.30 1 1015.6
20260505165054 13 245 0.0 3.2 0.00 0.69 0.30 1 1015.5
20260505164538 13 237 0.0 3.2 0.00 0.69 0.30 1 1015.4
20260505164012 13 221 0.0 4.8 0.00 0.69 0.30 1 1015.5
20260505163554 12 221 0.0 4.8 0.00 0.69 0.30 1 1015.5
20260505163040 12 198 0.0 1.6 0.00 0.69 0.30 1 1015.5
20260505162513 12 332 0.0 4.8 0.00 0.69 0.30 1 1015.5
20260505162056 12 30 0.0 4.8 0.00 0.69 0.30 1 1015.4
20260505161536 12 272 0.0 4.8 0.00 0.69 0.30 1 1015.5
20260505161015 12 248 0.0 8.0 0.00 0.69 0.30 1 1015.5
20260505160557 12 256 0.0 8.0 0.00 0.69 0.30 1 1015.4
20260505153047 12 210 0.0 9.7 0.00 0.69 0.30 1 1015.2
20260505152520 12 250 0.0 9.7 0.00 0.69 0.30 1 1015.1
20260505152103 11 270 1.6 11.3 0.00 0.69 0.30 1 1015.1
20260505151541 11 257 1.6 11.3 0.00 0.69 0.30 1 1015.0
20260505151021 11 337 0.0 8.0 0.00 0.69 0.30 1 1015.0
20260505150607 11 215 0.0 8.0 0.00 0.69 0.30 1 1015.0
20260505140513 11 154 0.0 0.0 0.00 0.69 0.30 1 1014.7
20260505130111 11 213 0.0 4.8 0.00 0.69 0.30 1 1014.3
20260505125019 11 252 0.0 3.2 0.00 0.69 0.30 1 1014.2
20260505124606 11 252 0.0 3.2 0.00 0.69 0.30 1 1014.2
20260505124041 11 226 0.0 3.2 0.00 0.69 0.30 1 1014.2
20260505123520 11 221 0.0 0.0 0.00 0.69 0.30 1 1014.2
20260505123115 11 221 0.0 0.0 0.00 0.69 0.30 1 1014.3
20260505122541 11 221 0.0 1.6 0.00 0.69 0.30 1 1014.3
20260505122022 11 221 0.0 3.2 0.00 0.69 0.30 1 1014.4
20260505121501 11 153 0.0 1.6 0.00 0.69 0.30 1 1014.4
20260505121047 11 255 0.0 1.6 0.00 0.69 0.30 1 1014.3
20260505120521 11 254 0.0 1.6 0.00 0.69 0.30 1 1014.3
20260505120002 11 254 0.0 3.2 0.00 0.69 0.30 1 1014.3
20260505115544 11 254 0.0 3.2 0.00 0.69 0.30 1 1014.3
20260505115024 11 154 0.0 3.2 0.00 0.69 0.30 1 1014.1
20260505114503 11 231 0.0 3.2 0.00 0.69 0.30 1 1014.1
20260505114046 10 223 0.0 1.6 0.00 0.69 0.30 1 1014.2
20260505113534 10 221 0.0 1.6 0.00 0.69 0.30 1 1014.2
20260505113014 10 221 0.0 1.6 0.00 0.69 0.30 1 1014.2
20260505112555 10 285 0.0 6.4 0.00 0.69 0.30 1 1014.2
20260505112036 10 214 0.0 3.2 0.00 0.69 0.30 1 1014.2
20260505111530 10 231 0.0 3.2 0.00 0.69 0.30 1 1014.2
20260505111002 10 157 1.6 3.2 0.00 0.69 0.30 1 1014.4
20260505110544 10 195 0.0 3.2 0.00 0.69 0.30 1 1014.5
20260505102010 10 254 0.0 3.2 0.00 0.69 0.30 1 1014.5
20260505101554 10 159 0.0 3.2 0.00 0.69 0.30 1 1014.5
20260505101036 10 145 0.0 3.2 0.00 0.69 0.30 1 1014.5
20260505100513 10 153 0.0 3.2 0.00 0.69 0.30 1 1014.5
20260505100057 10 207 0.0 3.2 0.03 0.69 0.30 1 1014.4
20260505095533 10 225 0.0 3.2 0.05 0.69 0.30 1 1014.2
20260505095012 10 157 0.0 3.2 0.05 0.69 0.30 1 1014.3
20260505094556 10 142 0.0 4.8 0.05 0.69 0.30 1 1014.4
20260505094035 10 158 0.0 4.8 0.08 0.69 0.30 1 1014.6
20260505093514 10 221 0.0 4.8 0.08 0.69 0.30 1 1014.6
20260505093057 10 201 1.6 4.8 0.08 0.69 0.30 1 1014.7
20260505092537 10 223 0.0 3.2 0.08 0.69 0.30 1 1014.7
20260505092016 10 245 0.0 4.8 0.08 0.69 0.30 1 1014.8
20260505091621 10 248 0.0 4.8 0.08 0.69 0.30 1 1014.8
20260505091037 10 235 0.0 6.4 0.08 0.69 0.30 1 1014.8
20260505090517 10 166 1.6 6.4 0.08 0.69 0.30 1 1014.8
20260505090123 10 243 1.6 6.4 0.05 0.66 0.28 1 1014.7
20260505085540 10 205 0.0 4.8 0.05 0.64 0.25 1 1014.9
20260505085019 10 197 0.0 4.8 0.05 0.64 0.25 1 1014.9
20260505084616 10 166 0.0 1.6 0.08 0.64 0.25 1 1015.0
20260505084040 10 350 0.0 1.6 0.10 0.61 0.23 1 1015.0
20260505083525 10 350 0.0 1.6 0.13 0.61 0.23 1 1015.2
20260505083112 10 350 0.0 3.2 0.15 0.61 0.23 1 1015.2
20260505082542 10 350 0.0 3.2 0.18 0.61 0.23 1 1015.2
20260505082022 10 13 0.0 0.0 0.20 0.61 0.23 1 1015.1
20260505081502 10 13 0.0 0.0 0.20 0.61 0.23 1 1015.1
20260505081044 10 13 0.0 0.0 0.20 0.61 0.23 1 1015.1
20260505080522 10 13 0.0 0.0 0.20 0.61 0.23 1 1015.1
20260505080006 10 13 0.0 0.0 0.23 0.61 0.23 1 1015.2
20260505075544 10 13 0.0 1.6 0.20 0.58 0.20 1 1015.2
20260505075023 10 13 0.0 1.6 0.20 0.58 0.20 1 1015.3
20260505074503 10 13 0.0 1.6 0.15 0.53 0.15 1 1015.3
20260505074046 10 13 0.0 0.0 0.13 0.51 0.13 1 1015.3
20260505073525 10 13 0.0 0.0 0.10 0.48 0.10 1 1015.5
20260505073010 10 13 0.0 0.0 0.08 0.46 0.08 1 1015.3
20260505072030 10 13 0.0 0.0 0.05 0.41 0.03 1 1015.2
20260505071510 10 13 0.0 1.6 0.05 0.41 0.03 1 1015.2
20260505071056 10 13 0.0 1.6 0.05 0.41 0.03 1 1015.3
20260505070535 10 13 0.0 0.0 0.05 0.41 0.03 1 1015.5
20260505070012 10 13 0.0 0.0 0.05 0.38 0.38 1 1015.6
20260505065555 10 13 0.0 0.0 0.05 0.38 0.38 1 1015.5
20260505065034 10 13 0.0 1.6 0.08 0.38 0.38 1 1015.5
20260505064514 10 13 0.0 1.6 0.10 0.38 0.38 1 1015.5
20260505064057 10 13 0.0 1.6 0.10 0.38 0.38 1 1015.4
20260505063535 10 13 0.0 1.6 0.13 0.38 0.38 1 1015.3
20260505063013 10 13 0.0 0.0 0.15 0.38 0.38 1 1015.3
20260505062555 10 13 0.0 1.6 0.13 0.36 0.36 1 1015.3
20260505062034 10 13 0.0 1.6 0.13 0.36 0.36 1 1015.3
20260505061525 10 261 0.0 3.2 0.15 0.36 0.36 1 1015.0
20260505061057 10 326 0.0 3.2 0.15 0.36 0.36 1 1015.1
20260505060537 10 263 0.0 1.6 0.15 0.36 0.36 1 1015.0
20260505060024 10 263 0.0 1.6 0.13 0.33 0.33 1 1015.0
20260505055557 10 266 0.0 1.6 0.15 0.33 0.33 1 1015.1
20260505055037 11 337 0.0 1.6 0.13 0.30 0.30 1 1015.3
20260505054518 11 337 0.0 1.6 0.10 0.28 0.28 1 1015.3
20260505054059 11 337 0.0 0.0 0.13 0.28 0.28 1 1015.4
20260505053538 11 337 0.0 1.6 0.10 0.25 0.25 1 1015.5
20260505053019 11 337 0.0 1.6 0.10 0.23 0.23 1 1015.4
20260505052601 11 337 0.0 1.6 0.13 0.23 0.23 1 1015.3
20260505052040 11 337 0.0 0.0 0.13 0.23 0.23 1 1015.2
20260505051520 11 337 0.0 0.0 0.13 0.20 0.20 1 1015.2
20260505051104 11 337 0.0 0.0 0.13 0.20 0.20 1 1015.2
20260505050541 11 337 0.0 0.0 0.15 0.20 0.20 1 1015.3
20260505041550 11 355 0.0 1.6 0.05 0.08 0.08 1 1015.9
20260505041018 11 355 0.0 1.6 0.05 0.08 0.08 1 1015.9
20260505040508 11 355 0.0 1.6 0.03 0.05 0.05 1 1015.8
20260505040050 11 358 0.0 1.6 0.03 0.05 0.05 1 1015.6
20260505035633 11 358 0.0 3.2 0.03 0.05 0.05 1 1015.6
20260505035016 11 358 0.0 4.8 0.03 0.05 0.05 1 1015.4
20260505034600 11 358 0.0 4.8 0.03 0.05 0.05 1 1015.2
20260505034039 11 352 0.0 3.2 0.03 0.05 0.05 1 1015.0
20260505033520 11 11 1.6 9.7 0.03 0.05 0.05 1 1014.8
20260505033102 11 339 0.0 9.7 0.00 0.03 0.03 1 1014.8
20260505032541 12 343 1.6 6.4 0.00 0.03 0.03 1 1014.7
20260505032023 12 330 3.2 6.4 0.00 0.03 0.03 1 1014.7
20260505031603 12 353 1.6 6.4 0.00 0.03 0.03 1 1014.7
20260505031042 12 298 1.6 6.4 0.03 0.03 0.03 1 1014.6
20260505030522 12 342 1.6 11.3 0.03 0.03 0.03 1 1014.6
20260505030002 12 339 3.2 8.0 0.03 0.03 0.03 1 1014.6
20260505025542 12 328 0.0 6.4 0.03 0.03 0.03 1 1014.6
20260505025022 12 318 3.2 6.4 0.03 0.03 0.03 3 1014.6
20260505024502 12 321 3.2 8.0 0.03 0.03 0.03 1 1014.6
20260505024044 12 327 3.2 8.0 0.03 0.03 0.03 1 1014.6
20260505023523 12 328 3.2 6.4 0.03 0.03 0.03 1 1014.6
20260505023003 12 304 1.6 6.4 0.03 0.03 0.03 1 1014.7
20260505022546 12 309 1.6 6.4 0.03 0.03 0.03 1 1014.7
20260505022025 12 303 1.6 4.8 0.03 0.03 0.03 1 1014.8
20260505021609 12 323 0.0 6.4 0.03 0.03 0.03 1 1014.7
20260505021056 12 345 1.6 8.0 0.00 0.00 0.00 1 1014.7
20260505020535 12 335 1.6 8.0 0.00 0.00 0.00 1 1014.6
20260505020014 12 340 1.6 8.0 0.00 0.00 0.00 1 1014.6
20260505015558 12 323 1.6 8.0 0.00 0.00 0.00 1 1014.7
20260505015037 12 326 1.6 6.4 0.00 0.00 0.00 2 1014.7
20260505014531 13 330 3.2 6.4 0.00 0.00 0.00 4 1014.8
20260505014104 13 337 1.6 4.8 0.00 0.00 0.00 5 1014.9
20260505013540 13 293 1.6 4.8 0.00 0.00 0.00 6 1015.0
20260505013026 13 328 1.6 8.0 0.00 0.00 0.00 8 1015.0
20260505012603 13 324 1.6 8.0 0.00 0.00 0.00 9 1015.1
20260505012042 13 322 3.2 8.0 0.00 0.00 0.00 10 1015.0
20260505011532 13 318 3.2 8.0 0.00 0.00 0.00 9 1015.0
20260505011001 13 316 1.6 6.4 0.00 0.00 0.00 9 1015.0
20260505010544 13 347 0.0 6.4 0.00 0.00 0.00 12 1015.0
20260505010031 13 312 1.6 4.8 0.00 0.00 0.00 13 1015.0
20260505005510 13 338 1.6 6.4 0.00 0.00 0.00 20 1014.9
20260505005054 13 333 3.2 6.4 0.00 0.00 0.00 26 1014.9
20260505004545 13 314 1.6 6.4 0.00 0.00 0.00 32 1014.8
20260505004012 14 319 1.6 6.4 0.00 0.00 0.00 39 1014.9
20260505003555 15 323 3.2 6.4 0.00 0.00 0.00 48 1014.9
20260505003051 15 324 3.2 6.4 0.00 0.00 0.00 57 1015.0
20260505002513 15 312 3.2 6.4 0.00 0.00 0.00 58 1015.1
20260505002057 15 326 3.2 6.4 0.00 0.00 0.00 59 1015.0
20260505001538 15 326 0.0 4.8 0.00 0.00 0.00 59 1015.0
20260505001018 15 330 0.0 4.8 0.00 0.00 0.00 59 1015.0
20260505000558 15 331 1.6 4.8 0.00 0.00 0.00 58 1015.0
20260505000038 15 340 0.0 4.8 0.00 0.00 0.00 59 1015.0
20260504235517 15 316 1.6 6.4 0.00 0.00 0.00 59 1015.0
20260504235101 15 343 1.6 6.4 0.00 0.00 0.00 58 1015.0
20260504234543 15 333 1.6 6.4 0.00 0.00 0.00 58 1014.9
20260504234022 15 1 1.6 4.8 0.00 0.00 0.00 57 1014.9
20260504233605 15 284 0.0 8.0 0.00 0.00 0.00 55 1014.9
20260504233046 16 323 0.0 8.0 0.00 0.00 0.00 52 1014.9
20260504232532 16 247 1.6 8.0 0.00 0.00 0.00 53 1014.8
20260504232011 16 235 0.0 6.4 0.00 0.00 0.00 53 1014.8
20260504231556 16 219 0.0 8.0 0.00 0.00 0.00 53 1014.7
20260504231034 16 234 1.6 8.0 0.00 0.00 0.00 54 1014.8
20260504230516 16 225 0.0 8.0 0.00 0.00 0.00 54 1014.8
20260504230057 16 221 3.2 12.9 0.00 0.00 0.00 54 1014.7
20260504225536 16 222 3.2 12.9 0.00 0.00 0.00 55 1014.7
20260504225016 16 232 3.2 8.0 0.00 0.00 0.00 55 1014.7
20260504224559 16 224 3.2 11.3 0.00 0.00 0.00 56 1014.7
20260504224038 16 203 3.2 11.3 0.00 0.00 0.00 58 1014.8
20260504223517 16 207 1.6 8.0 0.00 0.00 0.00 59 1014.8
20260504223125 16 328 0.0 9.7 0.00 0.00 0.00 59 1014.9
20260504222540 16 219 1.6 14.5 0.00 0.00 0.00 59 1014.9
20260504222019 16 249 1.6 8.0 0.00 0.00 0.00 59 1014.9
20260504221604 16 255 1.6 6.4 0.00 0.00 0.00 59 1014.9
20260504221042 17 271 0.0 9.7 0.00 0.00 0.00 58 1015.0
20260504220521 17 162 4.8 12.9 0.00 0.00 0.00 58 1015.0
20260504220009 17 222 3.2 12.9 0.00 0.00 0.00 58 1015.0
20260504215557 17 162 3.2 9.7 0.00 0.00 0.00 58 1015.0
20260504215036 17 202 1.6 9.7 0.00 0.00 0.00 58 1015.1
20260504214511 17 226 1.6 11.3 0.00 0.00 0.00 58 1015.0
20260504214057 17 229 1.6 11.3 0.00 0.00 0.00 58 1014.9
20260504213533 17 243 4.8 9.7 0.00 0.00 0.00 58 1015.0
20260504213022 16 248 3.2 9.7 0.00 0.00 0.00 59 1015.0
20260504212556 16 256 3.2 9.7 0.00 0.00 0.00 58 1015.1
20260504212036 16 254 1.6 14.5 0.00 0.00 0.00 58 1015.1
20260504211529 16 176 6.4 14.5 0.00 0.00 0.00 59 1015.2
20260504211059 16 145 0.0 11.3 0.00 0.00 0.00 58 1015.2
20260504210537 16 290 4.8 11.3 0.00 0.00 0.00 58 1015.2
20260504210017 16 241 1.6 12.9 0.00 0.00 0.00 58 1015.2
20260504205601 16 101 6.4 14.5 0.00 0.00 0.00 59 1015.1
20260504205037 16 185 6.4 14.5 0.00 0.00 0.00 58 1015.2
20260504204519 16 255 1.6 12.9 0.00 0.00 0.00 58 1015.2
20260504204100 16 195 4.8 14.5 0.00 0.00 0.00 59 1015.3
20260504203548 16 199 6.4 14.5 0.00 0.00 0.00 59 1015.2
20260504203026 16 185 4.8 14.5 0.00 0.00 0.00 59 1015.1
20260504202506 16 274 4.8 14.5 0.00 0.00 0.00 59 1015.1
20260504202049 17 167 6.4 11.3 0.00 0.00 0.00 58 1015.1
20260504201529 17 237 1.6 8.0 0.00 0.00 0.00 58 1015.0